When you browse on this site, cookies collect data to enhance your experience and personalize the content and advertising you see.
Visit our Privacy Policy to learn more. By continuing to use the site, you agree to this use of cookies and data.
  • In Portugal
  • List of Countries
  • For 7 days
  • Water Temperature
  • Weather Map
  • Weather Widgets
  • user-avatar
    Login

    Hourly Weather Al-Chums

    Today, 10 April, Friday

    Time Temperature Precipitation Wind Pressure Humidity
    00:00 +10°C° 0.1 mm 2 mps 714 mmHg 88%
    01:00 +10°C° 0.1 mm 2 mps 713 mmHg 88%
    02:00 +10°C° 0 mm 2 mps 713 mmHg 87%
    03:00 +10°C° 0 mm 3 mps 713 mmHg 84%
    04:00 +10°C° 0 mm 3 mps 713 mmHg 82%
    05:00 +10°C° 0 mm 3 mps 713 mmHg 80%
    06:00 +11°C° 0 mm 4 mps 713 mmHg 73%
    07:00 +12°C° 0 mm 5 mps 713 mmHg 67%
    08:00 +14°C° 0 mm 5 mps 714 mmHg 60%
    09:00 +15°C° 0.2 mm 6 mps 714 mmHg 58%
    10:00 +16°C° 0.2 mm 6 mps 714 mmHg 56%
    11:00 +16°C° 0.2 mm 7 mps 714 mmHg 54%
    12:00 +17°C° 0.4 mm 8 mps 713 mmHg 54%
    13:00 +17°C° 0.4 mm 9 mps 713 mmHg 53%
    14:00 +17°C° 0.4 mm 9 mps 712 mmHg 53%
    15:00 +16°C° 0.1 mm 9 mps 712 mmHg 56%
    16:00 +14°C° 0.1 mm 10 mps 712 mmHg 59%
    17:00 +13°C° 0.1 mm 10 mps 712 mmHg 62%
    18:00 +12°C° 0 mm 9 mps 713 mmHg 67%
    19:00 +11°C° 0 mm 8 mps 713 mmHg 72%
    20:00 +11°C° 0 mm 7 mps 713 mmHg 77%
    21:00 +10°C° 0 mm 6 mps 713 mmHg 77%
    22:00 +10°C° 0 mm 6 mps 714 mmHg 78%
    23:00 +10°C° 0 mm 5 mps 714 mmHg 78%

    Tomorrow, 11 April, Saturday

    Time Temperature Precipitation Wind Pressure Humidity
    00:00 +10°C° 0 mm 5 mps 714 mmHg 80%
    01:00 +10°C° 0 mm 5 mps 713 mmHg 81%
    02:00 +10°C° 0 mm 5 mps 713 mmHg 82%
    03:00 +9°C° 0 mm 5 mps 713 mmHg 84%
    04:00 +9°C° 0 mm 5 mps 714 mmHg 86%
    05:00 +10°C° 0 mm 4 mps 714 mmHg 88%
    06:00 +12°C° 0 mm 5 mps 714 mmHg 79%
    07:00 +13°C° 0 mm 5 mps 714 mmHg 69%
    08:00 +15°C° 0 mm 5 mps 715 mmHg 60%
    09:00 +16°C° 0.2 mm 6 mps 715 mmHg 57%
    10:00 +17°C° 0.2 mm 7 mps 716 mmHg 54%
    11:00 +18°C° 0.2 mm 7 mps 716 mmHg 52%
    12:00 +18°C° 0.2 mm 8 mps 716 mmHg 52%
    13:00 +18°C° 0.2 mm 9 mps 716 mmHg 52%
    14:00 +18°C° 0.2 mm 9 mps 715 mmHg 53%
    15:00 +17°C° 0 mm 9 mps 715 mmHg 56%
    16:00 +16°C° 0 mm 9 mps 715 mmHg 60%
    17:00 +15°C° 0 mm 9 mps 715 mmHg 63%
    18:00 +13°C° 0 mm 8 mps 716 mmHg 69%
    19:00 +12°C° 0 mm 7 mps 716 mmHg 74%
    20:00 +11°C° 0 mm 6 mps 716 mmHg 79%
    21:00 +11°C° 0 mm 6 mps 717 mmHg 81%
    22:00 +10°C° 0 mm 5 mps 717 mmHg 83%
    23:00 +10°C° 0 mm 5 mps 717 mmHg 85%

    Day after tomorrow, 12 April, Sunday

    Time Temperature Precipitation Wind Pressure Humidity
    00:00 +11°C° 0 mm 4 mps 717 mmHg 86%
    01:00 +11°C° 0 mm 4 mps 717 mmHg 87%
    02:00 +10°C° 0 mm 3 mps 717 mmHg 87%
    03:00 +10°C° 0 mm 3 mps 717 mmHg 87%
    04:00 +10°C° 0 mm 3 mps 717 mmHg 87%
    05:00 +10°C° 0 mm 2 mps 717 mmHg 87%
    06:00 +12°C° 0 mm 2 mps 718 mmHg 77%
    07:00 +13°C° 0 mm 3 mps 718 mmHg 67%
    08:00 +16°C° 0 mm 3 mps 718 mmHg 57%
    09:00 +17°C° 0 mm 3 mps 719 mmHg 51%
    10:00 +19°C° 0 mm 4 mps 719 mmHg 45%
    11:00 +20°C° 0 mm 4 mps 719 mmHg 39%
    12:00 +20°C° 0 mm 4 mps 719 mmHg 39%
    13:00 +21°C° 0 mm 5 mps 719 mmHg 38%
    14:00 +21°C° 0 mm 6 mps 718 mmHg 38%
    15:00 +20°C° 0 mm 6 mps 718 mmHg 44%
    16:00 +19°C° 0 mm 6 mps 718 mmHg 51%
    17:00 +17°C° 0 mm 6 mps 718 mmHg 57%
    18:00 +15°C° 0 mm 5 mps 718 mmHg 65%
    19:00 +14°C° 0 mm 4 mps 718 mmHg 72%
    20:00 +12°C° 0 mm 3 mps 718 mmHg 80%
    21:00 +13°C° 0 mm 2 mps 718 mmHg 79%
    22:00 +13°C° 0 mm 2 mps 718 mmHg 79%
    23:00 +12°C° 0 mm 1 mps 718 mmHg 79%

    13 April, Monday

    Time Temperature Precipitation Wind Pressure Humidity
    00:00 +12°C° 0 mm 1 mps 718 mmHg 78%
    01:00 +11°C° 0 mm 1 mps 718 mmHg 76%
    02:00 +11°C° 0 mm 1 mps 718 mmHg 75%
    03:00 +11°C° 0 mm 1 mps 718 mmHg 74%
    04:00 +9°C° 0 mm 0 mps 718 mmHg 73%
    05:00 +9°C° 0 mm 0 mps 718 mmHg 71%
    06:00 +11°C° 0 mm 0 mps 718 mmHg 61%
    07:00 +13°C° 0 mm 0 mps 719 mmHg 51%
    08:00 +16°C° 0 mm 0 mps 719 mmHg 41%
    09:00 +17°C° 0 mm 0 mps 719 mmHg 37%
    10:00 +21°C° 0 mm 1 mps 719 mmHg 32%
    11:00 +22°C° 0 mm 1 mps 720 mmHg 28%
    12:00 +23°C° 0 mm 1 mps 719 mmHg 28%
    13:00 +23°C° 0 mm 2 mps 719 mmHg 27%
    14:00 +24°C° 0 mm 2 mps 719 mmHg 26%
    15:00 +22°C° 0 mm 3 mps 718 mmHg 31%
    16:00 +21°C° 0 mm 3 mps 718 mmHg 35%
    17:00 +21°C° 0 mm 4 mps 718 mmHg 39%
    18:00 +19°C° 0 mm 3 mps 718 mmHg 44%
    19:00 +18°C° 0 mm 2 mps 718 mmHg 50%
    20:00 +16°C° 0 mm 1 mps 718 mmHg 55%
    21:00 +16°C° 0 mm 1 mps 718 mmHg 57%
    22:00 +15°C° 0 mm 1 mps 718 mmHg 59%
    23:00 +14°C° 0 mm 0 mps 718 mmHg 61%

    14 April, Tuesday

    Time Temperature Precipitation Wind Pressure Humidity
    00:00 +14°C° 0 mm 1 mps 717 mmHg 61%
    01:00 +14°C° 0 mm 1 mps 717 mmHg 61%
    02:00 +14°C° 0 mm 1 mps 717 mmHg 62%
    03:00 +13°C° 0 mm 1 mps 717 mmHg 61%
    04:00 +13°C° 0 mm 2 mps 717 mmHg 60%
    05:00 +13°C° 0 mm 2 mps 717 mmHg 59%
    06:00 +15°C° 0 mm 2 mps 717 mmHg 51%
    07:00 +18°C° 0 mm 3 mps 718 mmHg 43%
    08:00 +20°C° 0 mm 3 mps 718 mmHg 35%
    09:00 +21°C° 0 mm 3 mps 718 mmHg 31%
    10:00 +24°C° 0 mm 3 mps 718 mmHg 28%
    11:00 +25°C° 0 mm 3 mps 718 mmHg 24%
    12:00 +26°C° 0 mm 4 mps 718 mmHg 25%
    13:00 +26°C° 0 mm 4 mps 718 mmHg 25%
    14:00 +26°C° 0 mm 4 mps 717 mmHg 25%
    15:00 +25°C° 0 mm 5 mps 717 mmHg 30%
    16:00 +23°C° 0 mm 5 mps 717 mmHg 36%
    17:00 +21°C° 0 mm 5 mps 716 mmHg 41%
    18:00 +20°C° 0 mm 4 mps 717 mmHg 46%
    19:00 +18°C° 0 mm 3 mps 717 mmHg 52%
    20:00 +16°C° 0 mm 2 mps 717 mmHg 57%
    21:00 +16°C° 0 mm 2 mps 717 mmHg 58%
    22:00 +15°C° 0 mm 2 mps 717 mmHg 59%
    23:00 +14°C° 0 mm 2 mps 717 mmHg 60%

    15 April, Wednesday

    Time Temperature Precipitation Wind Pressure Humidity
    00:00 +14°C° 0 mm 2 mps 717 mmHg 60%
    01:00 +14°C° 0 mm 2 mps 717 mmHg 59%
    02:00 +13°C° 0 mm 2 mps 717 mmHg 59%
    03:00 +13°C° 0 mm 2 mps 717 mmHg 59%
    04:00 +12°C° 0 mm 2 mps 717 mmHg 59%
    05:00 +12°C° 0 mm 2 mps 717 mmHg 60%
    06:00 +13°C° 0 mm 3 mps 718 mmHg 54%
    07:00 +15°C° 0 mm 4 mps 718 mmHg 49%
    08:00 +18°C° 0 mm 4 mps 718 mmHg 44%
    09:00 +19°C° 0 mm 6 mps 718 mmHg 40%
    10:00 +20°C° 0 mm 7 mps 719 mmHg 37%
    11:00 +21°C° 0 mm 8 mps 719 mmHg 34%
    12:00 +21°C° 0 mm 9 mps 718 mmHg 35%
    13:00 +21°C° 0 mm 9 mps 718 mmHg 35%
    14:00 +19°C° 0 mm 10 mps 718 mmHg 35%
    15:00 +18°C° 0 mm 9 mps 718 mmHg 38%
    16:00 +17°C° 0 mm 9 mps 717 mmHg 42%
    17:00 +16°C° 0 mm 9 mps 717 mmHg 45%
    18:00 +15°C° 0 mm 8 mps 717 mmHg 52%
    19:00 +14°C° 0 mm 7 mps 717 mmHg 59%
    20:00 +11°C° 0 mm 6 mps 717 mmHg 66%
    21:00 +12°C° 0 mm 5 mps 717 mmHg 67%
    22:00 +12°C° 0 mm 5 mps 717 mmHg 68%
    23:00 +12°C° 0 mm 5 mps 717 mmHg 68%
    Show more